Time,TemperatureF,DewpointF,PressureIn,WindDirection,WindDirectionDegrees,WindSpeedMPH,WindSpeedGustMPH,Humidity,HourlyPrecipIn,Conditions,Clouds,dailyrainin,SoftwareType,DateUTC
2013-01-30 00:02:00,69.8,68.0,29.78,East,85,0.0,0.0,94,0.00,,,0.19,Wunderground v.1.13,2013-01-30 06:02:00,
2013-01-30 00:07:00,69.8,68.0,29.77,ENE,62,0.0,2.0,94,0.00,,,0.00,Wunderground v.1.13,2013-01-30 06:07:00,
2013-01-30 00:13:00,69.8,68.0,29.77,North,6,0.0,0.0,94,0.00,,,0.00,Wunderground v.1.13,2013-01-30 06:13:00,
2013-01-30 00:18:00,69.8,68.0,29.77,West,263,0.0,2.0,94,0.00,,,0.00,Wunderground v.1.13,2013-01-30 06:18:00,
2013-01-30 00:24:00,69.9,68.1,29.77,South,191,0.0,2.0,94,0.00,,,0.00,Wunderground v.1.13,2013-01-30 06:24:00,
2013-01-30 00:30:00,70.1,68.3,29.77,SSW,213,1.0,1.0,94,0.00,,,0.00,Wunderground v.1.13,2013-01-30 06:30:00,
2013-01-30 00:35:00,70.1,68.3,29.77,NE,41,0.0,0.0,94,0.00,,,0.00,Wunderground v.1.13,2013-01-30 06:35:00,
2013-01-30 00:41:00,70.3,68.5,29.76,WNW,299,0.0,3.0,94,0.00,,,0.00,Wunderground v.1.13,2013-01-30 06:41:00,
2013-01-30 00:47:00,70.4,68.6,29.76,NE,38,1.0,1.0,94,0.00,,,0.00,Wunderground v.1.13,2013-01-30 06:47:00,
2013-01-30 00:52:00,70.6,68.8,29.76,East,79,0.0,1.0,94,0.00,,,0.00,Wunderground v.1.13,2013-01-30 06:52:00,
2013-01-30 00:58:00,70.8,69.0,29.76,SSW,196,1.0,4.0,94,0.00,,,0.00,Wunderground v.1.13,2013-01-30 06:58:00,
2013-01-30 01:03:00,70.9,69.1,29.76,SW,223,1.0,2.0,94,0.00,,,0.00,Wunderground v.1.13,2013-01-30 07:03:00,
2013-01-30 01:09:00,70.9,69.1,29.75,WSW,253,0.0,1.0,94,0.00,,,0.00,Wunderground v.1.13,2013-01-30 07:09:00,
2013-01-30 01:14:00,70.9,69.1,29.75,ENE,62,0.0,0.0,94,0.00,,,0.00,Wunderground v.1.13,2013-01-30 07:14:00,
2013-01-30 01:20:00,70.9,69.1,29.75,SSW,196,1.0,1.0,94,0.00,,,0.00,Wunderground v.1.13,2013-01-30 07:20:00,
2013-01-30 01:25:00,70.9,69.1,29.74,ESE,102,1.0,2.0,94,0.00,,,0.00,Wunderground v.1.13,2013-01-30 07:25:00,
2013-01-30 01:31:00,70.8,69.0,29.74,North,0,0.0,0.0,94,0.00,,,0.00,Wunderground v.1.13,2013-01-30 07:31:00,
2013-01-30 01:37:00,70.8,69.0,29.74,NW,305,1.0,1.0,94,0.00,,,0.00,Wunderground v.1.13,2013-01-30 07:37:00,
2013-01-30 01:42:00,70.6,68.8,29.74,SSW,203,1.0,1.0,94,0.00,,,0.00,Wunderground v.1.13,2013-01-30 07:42:00,
2013-01-30 01:48:00,70.4,68.6,29.74,East,79,1.0,3.0,94,0.00,,,0.00,Wunderground v.1.13,2013-01-30 07:48:00,
2013-01-30 01:53:00,70.3,68.5,29.73,South,176,1.0,2.0,94,0.00,,,0.00,Wunderground v.1.13,2013-01-30 07:53:00,
2013-01-30 01:59:00,70.3,68.5,29.73,ENE,69,1.0,1.0,94,0.00,,,0.00,Wunderground v.1.13,2013-01-30 07:59:00,
2013-01-30 02:05:00,70.1,68.3,29.73,ENE,73,0.0,0.0,94,0.00,,,0.00,Wunderground v.1.13,2013-01-30 08:05:00,
2013-01-30 02:10:00,70.3,68.5,29.73,SSW,208,1.0,1.0,94,0.00,,,0.00,Wunderground v.1.13,2013-01-30 08:10:00,
2013-01-30 02:16:00,70.3,68.5,29.73,NE,54,1.0,1.0,94,0.00,,,0.00,Wunderground v.1.13,2013-01-30 08:16:00,
2013-01-30 02:22:00,70.4,68.6,29.73,NE,41,0.0,1.0,94,0.00,,,0.00,Wunderground v.1.13,2013-01-30 08:22:00,
2013-01-30 02:27:00,70.4,68.6,29.73,SW,217,1.0,1.0,94,0.00,,,0.00,Wunderground v.1.13,2013-01-30 08:27:00,
2013-01-30 02:33:00,70.6,68.8,29.73,ESE,120,0.0,0.0,94,0.00,,,0.00,Wunderground v.1.13,2013-01-30 08:33:00,
2013-01-30 02:38:00,70.6,68.8,29.72,NE,54,0.0,0.0,94,0.00,,,0.00,Wunderground v.1.13,2013-01-30 08:38:00,
2013-01-30 02:44:00,70.6,68.8,29.72,East,88,0.0,0.0,94,0.00,,,0.00,Wunderground v.1.13,2013-01-30 08:44:00,
2013-01-30 02:50:00,70.6,68.8,29.72,South,191,0.0,0.0,94,0.00,,,0.00,Wunderground v.1.13,2013-01-30 08:50:00,
2013-01-30 02:55:00,70.8,69.0,29.71,East,92,0.0,0.0,94,0.00,,,0.00,Wunderground v.1.13,2013-01-30 08:55:00,
2013-01-30 03:01:00,70.8,69.0,29.71,South,191,0.0,0.0,94,0.00,,,0.00,Wunderground v.1.13,2013-01-30 09:01:00,
2013-01-30 03:07:00,70.8,69.0,29.70,WSW,258,0.0,0.0,94,0.00,,,0.00,Wunderground v.1.13,2013-01-30 09:07:00,
2013-01-30 03:12:00,70.6,68.8,29.70,East,97,0.0,2.0,94,0.00,,,0.00,Wunderground v.1.13,2013-01-30 09:12:00,
2013-01-30 03:18:00,70.6,68.8,29.70,East,83,0.0,0.0,94,0.00,,,0.00,Wunderground v.1.13,2013-01-30 09:18:00,
2013-01-30 03:23:00,70.4,68.6,29.69,SW,236,0.0,3.0,94,0.00,,,0.00,Wunderground v.1.13,2013-01-30 09:23:00,
2013-01-30 03:29:00,70.3,68.5,29.69,South,185,0.0,1.0,94,0.00,,,0.00,Wunderground v.1.13,2013-01-30 09:29:00,
2013-01-30 03:35:00,70.3,68.5,29.69,SW,222,1.0,1.0,94,0.00,,,0.00,Wunderground v.1.13,2013-01-30 09:35:00,
2013-01-30 03:40:00,70.1,68.3,29.69,WSW,257,0.0,0.0,94,0.00,,,0.00,Wunderground v.1.13,2013-01-30 09:40:00,
2013-01-30 03:46:00,70.1,68.3,29.69,SW,215,0.0,1.0,94,0.00,,,0.00,Wunderground v.1.13,2013-01-30 09:46:00,
2013-01-30 03:52:00,70.1,68.3,29.69,SW,222,0.0,1.0,94,0.00,,,0.00,Wunderground v.1.13,2013-01-30 09:52:00,
2013-01-30 03:57:00,70.1,68.3,29.69,North,350,1.0,2.0,94,0.00,,,0.00,Wunderground v.1.13,2013-01-30 09:57:00,
2013-01-30 04:03:00,70.3,68.5,29.69,East,88,1.0,1.0,94,0.00,,,0.00,Wunderground v.1.13,2013-01-30 10:03:00,
2013-01-30 04:09:00,70.3,68.5,29.68,SSW,196,0.0,8.0,94,0.00,,,0.01,Wunderground v.1.13,2013-01-30 10:09:00,
2013-01-30 04:14:00,70.4,68.6,29.68,North,10,0.0,2.0,94,0.00,,,0.01,Wunderground v.1.13,2013-01-30 10:14:00,
2013-01-30 04:20:00,70.6,68.8,29.68,West,270,1.0,2.0,94,0.00,,,0.01,Wunderground v.1.13,2013-01-30 10:20:00,
2013-01-30 04:26:00,70.8,69.0,29.67,West,263,1.0,2.0,94,0.00,,,0.01,Wunderground v.1.13,2013-01-30 10:26:00,
2013-01-30 04:31:00,70.8,69.0,29.67,ESE,123,1.0,1.0,94,0.00,,,0.01,Wunderground v.1.13,2013-01-30 10:31:00,
2013-01-30 04:37:00,70.9,69.1,29.66,SSW,208,1.0,2.0,94,0.00,,,0.01,Wunderground v.1.13,2013-01-30 10:37:00,
2013-01-30 04:43:00,70.9,69.1,29.66,SSE,161,1.0,5.0,94,0.00,,,0.01,Wunderground v.1.13,2013-01-30 10:43:00,
2013-01-30 04:48:00,70.9,69.1,29.66,NNE,32,1.0,1.0,94,0.00,,,0.01,Wunderground v.1.13,2013-01-30 10:48:00,
2013-01-30 04:54:00,71.1,69.3,29.66,SW,229,1.0,4.0,94,0.00,,,0.01,Wunderground v.1.13,2013-01-30 10:54:00,
2013-01-30 04:59:00,71.1,69.3,29.66,SSW,199,1.0,5.0,94,0.00,,,0.01,Wunderground v.1.13,2013-01-30 10:59:00,
2013-01-30 05:05:00,71.1,69.3,29.66,SSW,203,1.0,3.0,94,0.00,,,0.01,Wunderground v.1.13,2013-01-30 11:05:00,
2013-01-30 05:11:00,71.1,69.3,29.66,ESE,113,2.0,2.0,94,0.00,,,0.01,Wunderground v.1.13,2013-01-30 11:11:00,
2013-01-30 05:16:00,71.1,69.3,29.66,West,278,1.0,1.0,94,0.00,,,0.01,Wunderground v.1.13,2013-01-30 11:16:00,
2013-01-30 05:22:00,71.1,69.3,29.66,ENE,65,1.0,4.0,94,0.00,,,0.01,Wunderground v.1.13,2013-01-30 11:22:00,
2013-01-30 05:27:00,71.1,69.3,29.66,NE,42,1.0,2.0,94,0.00,,,0.01,Wunderground v.1.13,2013-01-30 11:27:00,
2013-01-30 05:33:00,71.1,69.3,29.66,SSE,164,1.0,1.0,94,0.00,,,0.01,Wunderground v.1.13,2013-01-30 11:33:00,
2013-01-30 05:39:00,71.3,69.5,29.66,SSE,155,1.0,2.0,94,0.00,,,0.01,Wunderground v.1.13,2013-01-30 11:39:00,
2013-01-30 05:44:00,71.3,69.5,29.66,WSW,248,1.0,3.0,94,0.00,,,0.01,Wunderground v.1.13,2013-01-30 11:44:00,
2013-01-30 05:50:00,71.3,69.5,29.66,NE,49,1.0,1.0,94,0.00,,,0.01,Wunderground v.1.13,2013-01-30 11:50:00,
2013-01-30 05:56:00,71.3,69.5,29.65,NW,322,1.0,1.0,94,0.00,,,0.01,Wunderground v.1.13,2013-01-30 11:56:00,
2013-01-30 06:02:00,71.3,69.5,29.65,WSW,253,1.0,3.0,94,0.00,,,0.01,Wunderground v.1.13,2013-01-30 12:02:00,
2013-01-30 06:08:00,71.3,69.5,29.64,SW,233,1.0,1.0,94,0.00,,,0.01,Wunderground v.1.13,2013-01-30 12:08:00,
2013-01-30 06:13:00,71.3,69.5,29.64,SSW,206,1.0,3.0,94,0.00,,,0.01,Wunderground v.1.13,2013-01-30 12:13:00,
2013-01-30 06:19:00,71.5,69.7,29.64,South,171,1.0,2.0,94,0.00,,,0.01,Wunderground v.1.13,2013-01-30 12:19:00,
2013-01-30 06:25:00,71.5,69.7,29.64,NNW,329,1.0,1.0,94,0.00,,,0.01,Wunderground v.1.13,2013-01-30 12:25:00,
2013-01-30 06:30:00,71.5,69.7,29.64,WNW,294,1.0,1.0,94,0.00,,,0.01,Wunderground v.1.13,2013-01-30 12:30:00,
2013-01-30 06:36:00,71.5,69.7,29.64,NE,45,1.0,8.0,94,0.00,,,0.01,Wunderground v.1.13,2013-01-30 12:36:00,
2013-01-30 06:41:00,71.5,69.7,29.64,SW,222,1.0,3.0,94,0.00,,,0.01,Wunderground v.1.13,2013-01-30 12:41:00,
2013-01-30 06:47:00,71.5,69.7,29.64,ENE,61,1.0,6.0,94,0.00,,,0.01,Wunderground v.1.13,2013-01-30 12:47:00,
2013-01-30 06:53:00,71.3,69.5,29.64,North,0,1.0,2.0,94,0.00,,,0.01,Wunderground v.1.13,2013-01-30 12:53:00,
2013-01-30 06:58:00,71.5,69.7,29.64,WSW,239,1.0,1.0,94,0.00,,,0.01,Wunderground v.1.13,2013-01-30 12:58:00,
2013-01-30 07:04:00,71.5,69.4,29.64,West,264,1.0,6.0,93,0.00,,,0.01,Wunderground v.1.13,2013-01-30 13:04:00,
2013-01-30 07:09:00,71.6,69.5,29.64,NE,56,2.0,5.0,93,0.00,,,0.01,Wunderground v.1.13,2013-01-30 13:09:00,
2013-01-30 07:15:00,71.6,69.5,29.64,WSW,241,2.0,2.0,93,0.00,,,0.01,Wunderground v.1.13,2013-01-30 13:15:00,
2013-01-30 07:21:00,71.6,69.5,29.64,SSE,165,1.0,1.0,93,0.00,,,0.01,Wunderground v.1.13,2013-01-30 13:21:00,
2013-01-30 07:27:00,71.8,69.7,29.64,SSE,165,1.0,5.0,93,0.00,,,0.01,Wunderground v.1.13,2013-01-30 13:27:00,
2013-01-30 07:32:00,71.8,69.7,29.64,NW,319,2.0,14.0,93,0.00,,,0.01,Wunderground v.1.13,2013-01-30 13:32:00,
2013-01-30 07:38:00,72.0,69.9,29.63,SW,229,2.0,6.0,93,0.00,,,0.01,Wunderground v.1.13,2013-01-30 13:38:00,
2013-01-30 07:44:00,72.0,69.9,29.63,WNW,296,2.0,7.0,93,0.00,,,0.01,Wunderground v.1.13,2013-01-30 13:44:00,
2013-01-30 07:49:00,72.0,69.9,29.63,ESE,114,1.0,2.0,93,0.00,,,0.01,Wunderground v.1.13,2013-01-30 13:49:00,
2013-01-30 07:55:00,72.1,70.0,29.64,WSW,254,2.0,2.0,93,0.00,,,0.01,Wunderground v.1.13,2013-01-30 13:55:00,
2013-01-30 08:01:00,72.1,69.6,29.64,NW,311,2.0,3.0,92,0.00,,,0.01,Wunderground v.1.13,2013-01-30 14:01:00,
2013-01-30 08:06:00,72.3,69.8,29.64,SSW,208,2.0,3.0,92,0.00,,,0.01,Wunderground v.1.13,2013-01-30 14:06:00,
2013-01-30 08:12:00,72.3,69.8,29.64,NNW,344,2.0,11.0,92,0.00,,,0.01,Wunderground v.1.13,2013-01-30 14:12:00,
2013-01-30 08:17:00,72.3,69.8,29.64,SE,137,2.0,11.0,92,0.00,,,0.01,Wunderground v.1.13,2013-01-30 14:17:00,
2013-01-30 08:23:00,72.3,69.8,29.64,WSW,253,2.0,4.0,92,0.00,,,0.01,Wunderground v.1.13,2013-01-30 14:23:00,
2013-01-30 08:29:00,72.5,70.0,29.64,NW,325,2.0,3.0,92,0.00,,,0.01,Wunderground v.1.13,2013-01-30 14:29:00,
2013-01-30 08:34:00,72.5,70.0,29.64,NW,319,2.0,2.0,92,0.00,,,0.01,Wunderground v.1.13,2013-01-30 14:34:00,
2013-01-30 08:40:00,72.5,70.0,29.64,WNW,291,2.0,2.0,92,0.00,,,0.01,Wunderground v.1.13,2013-01-30 14:40:00,
2013-01-30 08:45:00,72.5,70.0,29.64,ESE,103,2.0,2.0,92,0.00,,,0.01,Wunderground v.1.13,2013-01-30 14:45:00,
2013-01-30 08:51:00,72.5,70.0,29.64,SSE,150,1.0,5.0,92,0.00,,,0.01,Wunderground v.1.13,2013-01-30 14:51:00,
2013-01-30 08:57:00,72.5,70.0,29.64,WNW,289,2.0,3.0,92,0.00,,,0.01,Wunderground v.1.13,2013-01-30 14:57:00,
2013-01-30 09:02:00,72.7,70.2,29.64,SW,224,1.0,2.0,92,0.00,,,0.01,Wunderground v.1.13,2013-01-30 15:02:00,
2013-01-30 09:08:00,72.5,69.7,29.64,SSW,209,1.0,8.0,91,0.00,,,0.01,Wunderground v.1.13,2013-01-30 15:08:00,
2013-01-30 09:14:00,72.7,69.9,29.64,South,176,3.0,12.0,91,0.00,,,0.01,Wunderground v.1.13,2013-01-30 15:14:00,
2013-01-30 09:19:00,72.7,69.9,29.64,West,268,3.0,7.0,91,0.00,,,0.01,Wunderground v.1.13,2013-01-30 15:19:00,
2013-01-30 09:25:00,72.7,69.9,29.63,SSW,199,2.0,5.0,91,0.00,,,0.01,Wunderground v.1.13,2013-01-30 15:25:00,
2013-01-30 09:30:00,72.8,70.0,29.63,ENE,64,2.0,2.0,91,0.00,,,0.01,Wunderground v.1.13,2013-01-30 15:30:00,
2013-01-30 09:36:00,72.8,70.0,29.63,South,188,2.0,3.0,91,0.00,,,0.01,Wunderground v.1.13,2013-01-30 15:36:00,
2013-01-30 09:41:00,73.0,70.2,29.63,West,264,3.0,3.0,91,0.00,,,0.01,Wunderground v.1.13,2013-01-30 15:41:00,
2013-01-30 09:47:00,73.0,69.9,29.63,SSE,151,2.0,2.0,90,0.00,,,0.01,Wunderground v.1.13,2013-01-30 15:47:00,
2013-01-30 09:53:00,73.0,69.9,29.63,NW,312,1.0,2.0,90,0.00,,,0.01,Wunderground v.1.13,2013-01-30 15:53:00,
2013-01-30 09:59:00,73.0,69.9,29.63,South,179,1.0,6.0,90,0.00,,,0.01,Wunderground v.1.13,2013-01-30 15:59:00,
2013-01-30 10:04:00,73.0,70.2,29.63,SW,219,2.0,4.0,91,0.00,,,0.01,Wunderground v.1.13,2013-01-30 16:04:00,
2013-01-30 10:10:00,73.0,69.9,29.62,SSW,198,2.0,2.0,90,0.00,,,0.01,Wunderground v.1.13,2013-01-30 16:10:00,
2013-01-30 10:15:00,73.2,70.1,29.62,NW,309,2.0,2.0,90,0.00,,,0.01,Wunderground v.1.13,2013-01-30 16:15:00,
2013-01-30 10:21:00,73.2,70.4,29.62,NW,318,2.0,7.0,91,0.00,,,0.01,Wunderground v.1.13,2013-01-30 16:21:00,
2013-01-30 10:26:00,73.2,70.1,29.62,North,352,2.0,2.0,90,0.00,,,0.01,Wunderground v.1.13,2013-01-30 16:26:00,
2013-01-30 10:32:00,73.3,69.9,29.62,SSW,199,2.0,10.0,89,0.00,,,0.01,Wunderground v.1.13,2013-01-30 16:32:00,
2013-01-30 10:38:00,73.3,69.9,29.62,NW,308,3.0,7.0,89,0.00,,,0.01,Wunderground v.1.13,2013-01-30 16:38:00,
2013-01-30 10:43:00,73.3,69.9,29.62,West,278,3.0,5.0,89,0.00,,,0.01,Wunderground v.1.13,2013-01-30 16:43:00,
2013-01-30 10:49:00,73.3,69.9,29.62,WNW,292,3.0,5.0,89,0.00,,,0.01,Wunderground v.1.13,2013-01-30 16:49:00,
2013-01-30 10:55:00,73.3,69.9,29.61,WNW,302,2.0,2.0,89,0.00,,,0.01,Wunderground v.1.13,2013-01-30 16:55:00,
2013-01-30 11:00:00,73.3,69.9,29.61,WSW,240,2.0,2.0,89,0.00,,,0.01,Wunderground v.1.13,2013-01-30 17:00:00,
2013-01-30 11:06:00,73.5,70.1,29.60,WSW,237,2.0,3.0,89,0.00,,,0.01,Wunderground v.1.13,2013-01-30 17:06:00,
2013-01-30 11:11:00,73.5,70.4,29.60,SSW,198,1.0,4.0,90,0.00,,,0.02,Wunderground v.1.13,2013-01-30 17:11:00,
2013-01-30 11:17:00,73.2,69.8,29.60,NNW,339,2.0,5.0,89,0.00,,,0.02,Wunderground v.1.13,2013-01-30 17:17:00,
2013-01-30 11:23:00,70.3,65.2,29.63,NW,319,8.0,19.0,84,1.20,,,0.05,Wunderground v.1.13,2013-01-30 17:23:00,
2013-01-30 11:29:00,65.5,61.2,29.63,NW,318,14.0,14.0,86,0.50,,,0.17,Wunderground v.1.13,2013-01-30 17:29:00,
2013-01-30 11:34:00,63.9,60.6,29.63,NW,322,12.0,15.0,89,0.60,,,0.22,Wunderground v.1.13,2013-01-30 17:34:00,
2013-01-30 11:40:00,63.2,60.2,29.64,West,271,8.0,8.0,90,0.17,,,0.24,Wunderground v.1.13,2013-01-30 17:40:00,
2013-01-30 11:46:00,63.1,60.4,29.64,NW,326,6.0,7.0,91,0.16,,,0.25,Wunderground v.1.13,2013-01-30 17:46:00,
2013-01-30 11:51:00,62.4,59.4,29.64,NNW,336,6.0,11.0,90,0.47,,,0.28,Wunderground v.1.13,2013-01-30 17:51:00,
2013-01-30 11:57:00,61.8,58.8,29.64,NW,308,8.0,8.0,90,0.10,,,0.28,Wunderground v.1.13,2013-01-30 17:57:00,
2013-01-30 12:03:00,61.3,58.7,29.64,NW,318,8.0,12.0,91,0.05,,,0.28,Wunderground v.1.13,2013-01-30 18:03:00,
2013-01-30 12:09:00,61.2,58.6,29.65,NNW,333,9.0,13.0,91,0.00,,,0.28,Wunderground v.1.13,2013-01-30 18:09:00,
2013-01-30 12:14:00,60.5,57.6,29.65,NW,304,10.0,13.0,90,0.00,,,0.29,Wunderground v.1.13,2013-01-30 18:14:00,
2013-01-30 12:20:00,59.5,56.3,29.65,NNW,328,11.0,11.0,89,0.09,,,0.30,Wunderground v.1.13,2013-01-30 18:20:00,
2013-01-30 12:26:00,58.4,55.2,29.66,North,349,12.0,12.0,89,0.09,,,0.30,Wunderground v.1.13,2013-01-30 18:26:00,
2013-01-30 12:31:00,57.8,54.9,29.66,NW,313,11.0,11.0,90,0.18,,,0.32,Wunderground v.1.13,2013-01-30 18:31:00,
2013-01-30 12:37:00,57.2,54.3,29.66,NW,313,10.0,12.0,90,0.13,,,0.33,Wunderground v.1.13,2013-01-30 18:37:00,
2013-01-30 12:42:00,56.6,53.7,29.66,NNW,333,10.0,14.0,90,0.21,,,0.35,Wunderground v.1.13,2013-01-30 18:42:00,
2013-01-30 12:48:00,55.7,52.5,29.66,NW,309,10.0,13.0,89,0.16,,,0.36,Wunderground v.1.13,2013-01-30 18:48:00,
2013-01-30 12:54:00,54.8,51.9,29.66,NNW,347,11.0,13.0,90,0.18,,,0.38,Wunderground v.1.13,2013-01-30 18:54:00,
2013-01-30 12:59:00,54.4,51.5,29.66,NNW,330,10.0,11.0,90,0.12,,,0.39,Wunderground v.1.13,2013-01-30 18:59:00,
2013-01-30 13:05:00,54.2,51.6,29.66,NW,322,7.0,7.0,91,0.26,,,0.41,Wunderground v.1.13,2013-01-30 19:05:00,
2013-01-30 13:10:00,53.9,51.3,29.66,NNW,342,6.0,6.0,91,0.19,,,0.42,Wunderground v.1.13,2013-01-30 19:10:00,
2013-01-30 13:15:00,53.9,51.3,29.66,NW,311,6.0,6.0,91,0.50,,,0.44,Wunderground v.1.13,2013-01-30 19:15:00,
2013-01-30 13:20:00,53.8,51.2,29.66,NW,306,5.0,5.0,91,0.18,,,0.46,Wunderground v.1.13,2013-01-30 19:20:00,
2013-01-30 13:26:00,53.5,50.9,29.66,North,3,6.0,6.0,91,0.09,,,0.46,Wunderground v.1.13,2013-01-30 19:26:00,
2013-01-30 13:32:00,53.5,50.9,29.66,NNW,329,6.0,6.0,91,0.05,,,0.46,Wunderground v.1.13,2013-01-30 19:32:00,
2013-01-30 13:37:00,53.5,50.9,29.66,North,353,6.0,8.0,91,0.00,,,0.47,Wunderground v.1.13,2013-01-30 19:37:00,
2013-01-30 13:43:00,53.5,50.9,29.66,NW,313,5.0,6.0,91,0.00,,,0.47,Wunderground v.1.13,2013-01-30 19:43:00,
2013-01-30 13:49:00,53.5,51.2,29.66,NW,320,3.0,5.0,92,0.00,,,0.47,Wunderground v.1.13,2013-01-30 19:49:00,
2013-01-30 13:55:00,53.6,51.3,29.67,NW,320,2.0,5.0,92,0.00,,,0.47,Wunderground v.1.13,2013-01-30 19:55:00,
2013-01-30 14:01:00,53.8,51.2,29.67,NW,322,4.0,6.0,91,0.00,,,0.47,Wunderground v.1.13,2013-01-30 20:01:00,
2013-01-30 14:07:00,53.8,51.2,29.67,NW,326,3.0,6.0,91,0.00,,,0.47,Wunderground v.1.13,2013-01-30 20:07:00,
2013-01-30 14:12:00,53.8,50.9,29.67,NW,313,3.0,5.0,90,0.00,,,0.47,Wunderground v.1.13,2013-01-30 20:12:00,
2013-01-30 14:18:00,53.9,51.0,29.67,NW,313,2.0,3.0,90,0.00,,,0.47,Wunderground v.1.13,2013-01-30 20:18:00,
2013-01-30 14:23:00,53.9,51.3,29.70,West,272,0.0,3.0,91,0.00,,,0.47,Wunderground v.1.13,2013-01-30 20:23:00,
2013-01-30 14:29:00,54.1,51.5,29.70,West,281,0.0,2.0,91,0.00,,,0.48,Wunderground v.1.13,2013-01-30 20:29:00,
2013-01-30 14:34:00,54.1,51.2,29.70,WNW,287,2.0,4.0,90,0.08,,,0.49,Wunderground v.1.13,2013-01-30 20:34:00,
2013-01-30 14:40:00,54.1,51.5,29.69,South,179,2.0,2.0,91,0.08,,,0.49,Wunderground v.1.13,2013-01-30 20:40:00,
2013-01-30 14:46:00,54.1,51.5,29.69,WNW,301,1.0,3.0,91,0.04,,,0.49,Wunderground v.1.13,2013-01-30 20:46:00,
2013-01-30 14:51:00,54.1,51.5,29.68,WNW,301,1.0,1.0,91,0.00,,,0.49,Wunderground v.1.13,2013-01-30 20:51:00,
2013-01-30 14:57:00,54.1,51.5,29.68,WNW,294,0.0,0.0,91,0.00,,,0.49,Wunderground v.1.13,2013-01-30 20:57:00,
2013-01-30 15:02:00,54.2,51.6,29.68,WNW,294,0.0,1.0,91,0.00,,,0.49,Wunderground v.1.13,2013-01-30 21:02:00,
2013-01-30 15:08:00,54.5,52.2,29.69,WNW,294,0.0,0.0,92,0.00,,,0.49,Wunderground v.1.13,2013-01-30 21:08:00,
2013-01-30 15:14:00,54.7,52.4,29.69,WNW,294,0.0,0.0,92,0.00,,,0.49,Wunderground v.1.13,2013-01-30 21:14:00,
2013-01-30 15:19:00,54.7,52.4,29.69,SSE,168,0.0,1.0,92,0.00,,,0.49,Wunderground v.1.13,2013-01-30 21:19:00,
2013-01-30 15:25:00,54.7,52.4,29.68,SSE,167,0.0,0.0,92,0.00,,,0.49,Wunderground v.1.13,2013-01-30 21:25:00,
2013-01-30 15:31:00,54.8,52.5,29.68,South,172,0.0,0.0,92,0.00,,,0.49,Wunderground v.1.13,2013-01-30 21:31:00,
2013-01-30 15:36:00,55.0,52.7,29.70,South,172,0.0,0.0,92,0.00,,,0.49,Wunderground v.1.13,2013-01-30 21:36:00,
2013-01-30 15:42:00,55.0,52.7,29.70,WNW,294,0.0,5.0,92,0.00,,,0.49,Wunderground v.1.13,2013-01-30 21:42:00,
2013-01-30 15:47:00,55.0,52.7,29.70,NW,319,2.0,6.0,92,0.00,,,0.49,Wunderground v.1.13,2013-01-30 21:47:00,
2013-01-30 15:53:00,55.1,52.8,29.69,WNW,295,1.0,2.0,92,0.00,,,0.49,Wunderground v.1.13,2013-01-30 21:53:00,
2013-01-30 15:59:00,55.1,52.5,29.69,NW,316,1.0,1.0,91,0.00,,,0.49,Wunderground v.1.13,2013-01-30 21:59:00,
2013-01-30 16:04:00,55.3,52.7,29.69,NW,316,0.0,1.0,91,0.00,,,0.49,Wunderground v.1.13,2013-01-30 22:04:00,
2013-01-30 16:10:00,55.4,53.1,29.70,WNW,302,0.0,5.0,92,0.00,,,0.49,Wunderground v.1.13,2013-01-30 22:10:00,
2013-01-30 16:15:00,55.4,52.8,29.70,WNW,302,1.0,1.0,91,0.00,,,0.49,Wunderground v.1.13,2013-01-30 22:15:00,
2013-01-30 16:21:00,55.6,53.3,29.72,WNW,302,0.0,1.0,92,0.00,,,0.49,Wunderground v.1.13,2013-01-30 22:21:00,
2013-01-30 16:26:00,55.7,53.4,29.72,WNW,302,0.0,0.0,92,0.00,,,0.49,Wunderground v.1.13,2013-01-30 22:26:00,
2013-01-30 16:32:00,55.7,53.1,29.72,West,277,0.0,2.0,91,0.00,,,0.49,Wunderground v.1.13,2013-01-30 22:32:00,
2013-01-30 16:38:00,55.7,53.1,29.72,WNW,298,0.0,4.0,91,0.00,,,0.49,Wunderground v.1.13,2013-01-30 22:38:00,
2013-01-30 16:43:00,55.7,53.1,29.72,WNW,295,1.0,1.0,91,0.00,,,0.49,Wunderground v.1.13,2013-01-30 22:43:00,
2013-01-30 16:49:00,55.7,53.1,29.72,WNW,295,0.0,0.0,91,0.00,,,0.49,Wunderground v.1.13,2013-01-30 22:49:00,
2013-01-30 16:54:00,55.9,53.3,29.74,WNW,295,1.0,2.0,91,0.00,,,0.49,Wunderground v.1.13,2013-01-30 22:54:00,
2013-01-30 17:00:00,55.9,53.0,29.74,WNW,289,1.0,3.0,90,0.00,,,0.49,Wunderground v.1.13,2013-01-30 23:00:00,
2013-01-30 17:06:00,55.7,52.8,29.74,NW,304,1.0,2.0,90,0.00,,,0.49,Wunderground v.1.13,2013-01-30 23:06:00,
2013-01-30 17:11:00,55.7,52.5,29.74,West,271,3.0,7.0,89,0.00,,,0.49,Wunderground v.1.13,2013-01-30 23:11:00,
2013-01-30 17:17:00,55.7,52.2,29.74,NW,308,4.0,7.0,88,0.00,,,0.50,Wunderground v.1.13,2013-01-30 23:17:00,
2013-01-30 17:22:00,56.0,52.2,29.73,NW,311,5.0,8.0,87,0.00,,,0.50,Wunderground v.1.13,2013-01-30 23:22:00,
2013-01-30 17:28:00,56.2,52.4,29.73,NW,308,6.0,7.0,87,0.00,,,0.50,Wunderground v.1.13,2013-01-30 23:28:00,
2013-01-30 17:34:00,56.3,52.2,29.73,NW,320,5.0,7.0,86,0.00,,,0.50,Wunderground v.1.13,2013-01-30 23:34:00,
2013-01-30 17:39:00,56.3,51.8,29.75,WNW,296,5.0,6.0,85,0.00,,,0.50,Wunderground v.1.13,2013-01-30 23:39:00,
2013-01-30 17:45:00,56.3,51.5,29.75,NW,318,6.0,6.0,84,0.00,,,0.50,Wunderground v.1.13,2013-01-30 23:45:00,
2013-01-30 17:51:00,56.3,51.2,29.75,West,271,7.0,12.0,83,0.00,,,0.50,Wunderground v.1.13,2013-01-30 23:51:00,
2013-01-30 17:56:00,56.2,50.8,29.75,NNW,337,7.0,7.0,82,0.00,,,0.50,Wunderground v.1.13,2013-01-30 23:56:00,
2013-01-30 18:02:00,56.2,50.1,29.75,WNW,301,7.0,7.0,80,0.00,,,0.50,Wunderground v.1.13,2013-01-31 00:02:00,
2013-01-30 18:07:00,56.0,49.9,29.77,NW,313,6.0,8.0,80,0.00,,,0.50,Wunderground v.1.13,2013-01-31 00:07:00,
2013-01-30 18:13:00,56.2,49.8,29.77,NW,318,6.0,6.0,79,0.00,,,0.50,Wunderground v.1.13,2013-01-31 00:13:00,
2013-01-30 18:18:00,56.0,49.2,29.77,NW,309,6.0,8.0,78,0.00,,,0.50,Wunderground v.1.13,2013-01-31 00:18:00,
2013-01-30 18:24:00,56.0,48.9,29.78,WNW,294,7.0,8.0,77,0.00,,,0.50,Wunderground v.1.13,2013-01-31 00:24:00,
2013-01-30 18:30:00,55.9,48.4,29.78,West,277,6.0,6.0,76,0.00,,,0.50,Wunderground v.1.13,2013-01-31 00:30:00,
2013-01-30 18:35:00,55.9,48.4,29.78,West,267,6.0,7.0,76,0.00,,,0.50,Wunderground v.1.13,2013-01-31 00:35:00,
2013-01-30 18:41:00,55.6,47.4,29.80,NNW,339,7.0,7.0,74,0.00,,,0.50,Wunderground v.1.13,2013-01-31 00:41:00,
2013-01-30 18:46:00,55.4,47.2,29.80,NW,315,7.0,7.0,74,0.00,,,0.50,Wunderground v.1.13,2013-01-31 00:46:00,
2013-01-30 18:52:00,55.3,47.2,29.82,NW,319,6.0,7.0,74,0.00,,,0.50,Wunderground v.1.13,2013-01-31 00:52:00,
2013-01-30 18:58:00,55.1,46.6,29.82,North,357,5.0,6.0,73,0.00,,,0.50,Wunderground v.1.13,2013-01-31 00:58:00,
2013-01-30 19:03:00,55.0,46.5,29.82,NW,322,5.0,6.0,73,0.00,,,0.50,Wunderground v.1.13,2013-01-31 01:03:00,
2013-01-30 19:09:00,54.8,45.9,29.83,NW,315,6.0,8.0,72,0.00,,,0.50,Wunderground v.1.13,2013-01-31 01:09:00,
2013-01-30 19:14:00,54.7,45.8,29.83,NNW,344,5.0,7.0,72,0.00,,,0.50,Wunderground v.1.13,2013-01-31 01:14:00,
2013-01-30 19:20:00,54.5,45.3,29.83,NW,322,5.0,7.0,71,0.00,,,0.50,Wunderground v.1.13,2013-01-31 01:20:00,
2013-01-30 19:26:00,54.2,45.0,29.84,North,1,6.0,6.0,71,0.00,,,0.50,Wunderground v.1.13,2013-01-31 01:26:00,
2013-01-30 19:31:00,54.1,44.9,29.84,North,0,6.0,7.0,71,0.00,,,0.50,Wunderground v.1.13,2013-01-31 01:31:00,
2013-01-30 19:37:00,53.9,44.7,29.85,NW,320,6.0,7.0,71,0.00,,,0.50,Wunderground v.1.13,2013-01-31 01:37:00,
2013-01-30 19:42:00,53.9,44.7,29.85,North,354,5.0,6.0,71,0.00,,,0.50,Wunderground v.1.13,2013-01-31 01:42:00,
2013-01-30 19:48:00,53.6,44.0,29.85,North,350,6.0,10.0,70,0.00,,,0.50,Wunderground v.1.13,2013-01-31 01:48:00,
2013-01-30 19:54:00,53.5,44.0,29.86,NNW,333,7.0,7.0,70,0.00,,,0.50,Wunderground v.1.13,2013-01-31 01:54:00,
2013-01-30 19:59:00,53.3,43.4,29.86,NW,316,7.0,10.0,69,0.00,,,0.50,Wunderground v.1.13,2013-01-31 01:59:00,
2013-01-30 20:05:00,53.2,43.3,29.86,NNW,337,6.0,6.0,69,0.00,,,0.50,Wunderground v.1.13,2013-01-31 02:05:00,
2013-01-30 20:11:00,52.9,43.0,29.88,NW,320,5.0,6.0,69,0.00,,,0.50,Wunderground v.1.13,2013-01-31 02:11:00,
2013-01-30 20:17:00,52.8,42.1,29.88,NW,311,6.0,9.0,67,0.00,,,0.50,Wunderground v.1.13,2013-01-31 02:17:00,
2013-01-30 20:23:00,52.8,42.5,29.89,NW,320,6.0,7.0,68,0.00,,,0.50,Wunderground v.1.13,2013-01-31 02:23:00,
2013-01-30 20:29:00,52.6,42.3,29.89,NNW,330,6.0,8.0,68,0.00,,,0.50,Wunderground v.1.13,2013-01-31 02:29:00,
2013-01-30 20:34:00,52.5,42.2,29.89,NW,326,6.0,11.0,68,0.00,,,0.50,Wunderground v.1.13,2013-01-31 02:34:00,
2013-01-30 20:40:00,52.2,42.0,29.91,North,349,7.0,7.0,68,0.00,,,0.50,Wunderground v.1.13,2013-01-31 02:40:00,
2013-01-30 20:45:00,52.0,41.8,29.91,North,359,6.0,7.0,68,0.00,,,0.50,Wunderground v.1.13,2013-01-31 02:45:00,
2013-01-30 20:51:00,51.9,41.3,29.92,NNW,333,6.0,11.0,67,0.00,,,0.50,Wunderground v.1.13,2013-01-31 02:51:00,
2013-01-30 20:56:00,51.7,41.5,29.92,North,349,6.0,6.0,68,0.00,,,0.50,Wunderground v.1.13,2013-01-31 02:56:00,
2013-01-30 21:02:00,51.7,42.2,29.92,NW,312,6.0,7.0,70,0.00,,,0.50,Wunderground v.1.13,2013-01-31 03:02:00,
2013-01-30 21:08:00,51.4,41.2,29.93,NW,306,8.0,18.0,68,0.00,,,0.50,Wunderground v.1.13,2013-01-31 03:08:00,
2013-01-30 21:14:00,51.1,40.5,29.93,North,0,8.0,8.0,67,0.00,,,0.50,Wunderground v.1.13,2013-01-31 03:14:00,
2013-01-30 21:20:00,50.8,40.6,29.93,North,354,5.0,5.0,68,0.00,,,0.50,Wunderground v.1.13,2013-01-31 03:20:00,
2013-01-30 21:26:00,50.7,40.1,29.94,North,359,8.0,8.0,67,0.00,,,0.50,Wunderground v.1.13,2013-01-31 03:26:00,
2013-01-30 21:31:00,50.5,39.6,29.94,North,10,9.0,18.0,66,0.00,,,0.50,Wunderground v.1.13,2013-01-31 03:31:00,
2013-01-30 21:37:00,50.1,38.8,29.96,North,0,9.0,21.0,65,0.00,,,0.50,Wunderground v.1.13,2013-01-31 03:37:00,
2013-01-30 21:42:00,49.6,37.9,29.96,North,0,11.0,11.0,64,0.00,,,0.50,Wunderground v.1.13,2013-01-31 03:42:00,
2013-01-30 21:48:00,49.4,37.3,29.96,NNW,347,11.0,12.0,63,0.00,,,0.50,Wunderground v.1.13,2013-01-31 03:48:00,
2013-01-30 21:54:00,48.9,36.4,29.96,North,0,9.0,10.0,62,0.00,,,0.50,Wunderground v.1.13,2013-01-31 03:54:00,
2013-01-30 21:59:00,48.8,37.2,29.96,North,1,8.0,17.0,64,0.00,,,0.50,Wunderground v.1.13,2013-01-31 03:59:00,
2013-01-30 22:05:00,48.5,36.9,29.96,North,7,9.0,10.0,64,0.00,,,0.50,Wunderground v.1.13,2013-01-31 04:05:00,
2013-01-30 22:10:00,48.3,37.1,29.97,NNW,342,9.0,9.0,65,0.00,,,0.50,Wunderground v.1.13,2013-01-31 04:10:00,
2013-01-30 22:16:00,47.9,35.5,29.97,NNW,332,11.0,21.0,62,0.00,,,0.50,Wunderground v.1.13,2013-01-31 04:16:00,
2013-01-30 22:22:00,47.6,34.8,29.99,North,350,11.0,11.0,61,0.00,,,0.50,Wunderground v.1.13,2013-01-31 04:22:00,
2013-01-30 22:27:00,47.3,34.5,29.99,North,6,10.0,17.0,61,0.00,,,0.50,Wunderground v.1.13,2013-01-31 04:27:00,
2013-01-30 22:33:00,47.1,35.1,29.99,North,6,8.0,9.0,63,0.00,,,0.50,Wunderground v.1.13,2013-01-31 04:33:00,
2013-01-30 22:39:00,47.0,34.6,30.00,North,0,6.0,16.0,62,0.00,,,0.50,Wunderground v.1.13,2013-01-31 04:39:00,
2013-01-30 22:44:00,46.7,34.0,30.00,North,359,8.0,11.0,61,0.00,,,0.50,Wunderground v.1.13,2013-01-31 04:44:00,
2013-01-30 22:50:00,46.5,33.8,30.00,North,357,8.0,8.0,61,0.00,,,0.50,Wunderground v.1.13,2013-01-31 04:50:00,
2013-01-30 22:55:00,46.4,33.3,30.00,North,0,8.0,8.0,60,0.00,,,0.50,Wunderground v.1.13,2013-01-31 04:55:00,
2013-01-30 23:01:00,46.2,32.7,30.00,North,0,8.0,13.0,59,0.00,,,0.50,Wunderground v.1.13,2013-01-31 05:01:00,
2013-01-30 23:03:00,46.2,32.7,30.00,North,0,9.0,13.0,59,0.00,,,0.50,Wunderground v.1.13,2013-01-31 05:03:00,
2013-01-30 23:06:00,46.2,33.5,30.01,NE,38,9.0,13.0,61,0.00,,,0.50,Wunderground v.1.13,2013-01-31 05:06:00,
2013-01-30 23:11:00,46.2,33.5,30.01,North,0,6.0,9.0,61,0.00,,,0.50,Wunderground v.1.13,2013-01-31 05:11:00,
2013-01-30 23:16:00,46.1,32.6,30.01,North,0,5.0,12.0,59,0.00,,,0.50,Wunderground v.1.13,2013-01-31 05:16:00,
2013-01-30 23:22:00,46.0,32.9,30.01,North,3,6.0,6.0,60,0.00,,,0.50,Wunderground v.1.13,2013-01-31 05:22:00,
2013-01-30 23:28:00,45.8,32.7,30.01,North,10,6.0,10.0,60,0.00,,,0.50,Wunderground v.1.13,2013-01-31 05:28:00,
2013-01-30 23:33:00,45.7,32.6,30.01,North,0,6.0,7.0,60,0.00,,,0.50,Wunderground v.1.13,2013-01-31 05:33:00,
2013-01-30 23:39:00,45.5,32.4,30.02,North,0,5.0,10.0,60,0.00,,,0.50,Wunderground v.1.13,2013-01-31 05:39:00,
2013-01-30 23:44:00,45.4,32.3,30.02,North,1,5.0,6.0,60,0.00,,,0.50,Wunderground v.1.13,2013-01-31 05:44:00,
2013-01-30 23:50:00,45.4,32.7,30.02,North,0,5.0,5.0,61,0.00,,,0.50,Wunderground v.1.13,2013-01-31 05:50:00,
2013-01-30 23:56:00,45.4,32.7,30.02,North,349,7.0,7.0,61,0.00,,,0.50,Wunderground v.1.13,2013-01-31 05:56:00,